Location: Easthampton
(42.2676°N, 72.6690°W)
Time: 16:03:20
(UTC+00:00)

Gurwin Techsat 1B - Pass Details

Date: 07 April 2023
Orbit: 811 x 813 km, 98.9° (Epoch: 02 June)

Event Time Altitude Azimuth Distance (km) Brightness Sun altitude
Rises 08:07:26 0° 10° (N) 3,348 12.5 -24.0°
Reaches altitude 10° 08:09:47 10° 8° (N) 2,412 11.6 -23.6°
Maximum altitude 08:15:04 65° 288° (WNW) 892 8.6 -22.8°
Enters shadow 08:16:05 53° 237° (WSW) 991 8.6 -22.7°
